Time,TemperatureF,DewpointF,PressureIn,WindDirection,WindDirectionDegrees,WindSpeedMPH,WindSpeedGustMPH,Humidity,HourlyPrecipIn,Conditions,Clouds,dailyrainin,SoftwareType,DateUTC
2013-12-25 00:02:00,23.4,-0.9,30.11,SW,227,3.1,3.1,34,0.00,,CLR,0.00,VWS V13.01,2013-12-25 07:02:00,
2013-12-25 00:07:00,23.2,-1.0,30.11,SW,225,2.2,3.1,34,0.00,,CLR,0.00,VWS V13.01,2013-12-25 07:07:00,
2013-12-25 00:12:00,22.8,-0.7,30.11,SW,226,2.2,3.1,35,0.00,,CLR,0.00,VWS V13.01,2013-12-25 07:12:00,
2013-12-25 00:17:00,22.8,-0.7,30.11,SW,225,2.7,3.1,35,0.00,,CLR,0.00,VWS V13.01,2013-12-25 07:17:00,
2013-12-25 00:21:00,22.6,-0.3,30.11,South,177,2.2,3.1,36,0.00,,CLR,0.00,VWS V13.01,2013-12-25 07:21:00,
2013-12-25 00:26:00,22.6,-0.3,30.11,South,177,0.0,3.1,36,0.00,,CLR,0.00,VWS V13.01,2013-12-25 07:26:00,
2013-12-25 00:31:00,22.5,-0.4,30.11,South,177,0.0,0.0,36,0.00,,CLR,0.00,VWS V13.01,2013-12-25 07:31:00,
2013-12-25 00:36:00,22.1,-0.8,30.11,South,177,0.0,0.0,36,0.00,,CLR,0.00,VWS V13.01,2013-12-25 07:36:00,
2013-12-25 00:41:00,21.9,-0.9,30.11,South,177,0.0,0.0,36,0.00,,CLR,0.00,VWS V13.01,2013-12-25 07:41:00,
2013-12-25 00:46:00,21.9,-0.9,30.11,SSW,207,2.7,2.7,36,0.00,,CLR,0.00,VWS V13.01,2013-12-25 07:46:00,
2013-12-25 00:51:00,21.6,-1.2,30.11,ESE,105,0.0,3.6,36,0.00,,CLR,0.00,VWS V13.01,2013-12-25 07:51:00,
2013-12-25 00:56:00,21.4,-0.8,30.08,ESE,105,0.0,3.6,37,0.00,,CLR,0.00,VWS V13.01,2013-12-25 07:56:00,
2013-12-25 01:01:00,21.2,-0.4,30.08,ESE,105,0.0,0.0,38,0.00,,CLR,0.00,VWS V13.01,2013-12-25 08:01:00,
2013-12-25 01:07:00,21.0,-0.6,30.08,ESE,105,0.0,0.0,38,0.00,,CLR,0.00,VWS V13.01,2013-12-25 08:07:00,
2013-12-25 01:12:00,20.8,-0.2,30.11,ESE,105,0.0,0.0,39,0.00,,CLR,0.00,VWS V13.01,2013-12-25 08:12:00,
2013-12-25 01:17:00,20.5,-0.5,30.11,ESE,106,0.0,0.0,39,0.00,,CLR,0.00,VWS V13.01,2013-12-25 08:17:00,
2013-12-25 01:22:00,20.3,-0.7,30.11,ESE,105,0.0,0.0,39,0.00,,CLR,0.00,VWS V13.01,2013-12-25 08:22:00,
2013-12-25 01:27:00,20.1,-0.3,30.11,ESE,105,0.0,0.0,40,0.00,,CLR,0.00,VWS V13.01,2013-12-25 08:27:00,
2013-12-25 01:32:00,20.3,0.4,30.11,ESE,105,0.0,0.0,41,0.00,,CLR,0.00,VWS V13.01,2013-12-25 08:32:00,
2013-12-25 01:37:00,20.3,0.9,30.11,ESE,105,0.0,0.0,42,0.00,,CLR,0.00,VWS V13.01,2013-12-25 08:37:00,
2013-12-25 01:42:00,20.3,0.9,30.11,ESE,105,0.0,0.0,42,0.00,,CLR,0.00,VWS V13.01,2013-12-25 08:42:00,
2013-12-25 01:47:00,19.9,1.1,30.11,ESE,105,0.0,0.0,43,0.00,,CLR,0.00,VWS V13.01,2013-12-25 08:47:00,
2013-12-25 01:52:00,20.3,1.4,30.11,ESE,105,0.0,0.0,43,0.00,,CLR,0.00,VWS V13.01,2013-12-25 08:52:00,
2013-12-25 01:57:00,20.3,1.4,30.11,ESE,105,0.0,0.0,43,0.00,,CLR,0.00,VWS V13.01,2013-12-25 08:57:00,
2013-12-25 02:02:00,20.3,1.4,30.11,ESE,105,0.0,0.0,43,0.00,,CLR,0.00,VWS V13.01,2013-12-25 09:02:00,
2013-12-25 02:07:00,20.1,1.2,30.11,ESE,105,0.0,0.0,43,0.00,,CLR,0.00,VWS V13.01,2013-12-25 09:07:00,
2013-12-25 02:12:00,19.8,0.9,30.11,ESE,105,0.0,0.0,43,0.00,,CLR,0.00,VWS V13.01,2013-12-25 09:12:00,
2013-12-25 02:17:00,19.8,0.9,30.11,ESE,105,0.0,0.0,43,0.00,,CLR,0.00,VWS V13.01,2013-12-25 09:17:00,
2013-12-25 02:22:00,19.9,1.1,30.11,ESE,105,0.0,0.0,43,0.00,,CLR,0.00,VWS V13.01,2013-12-25 09:22:00,
2013-12-25 02:27:00,19.8,0.9,30.11,ESE,105,0.0,0.0,43,0.00,,CLR,0.00,VWS V13.01,2013-12-25 09:27:00,
2013-12-25 02:32:00,19.8,1.4,30.11,ESE,105,3.1,3.1,44,0.00,,CLR,0.00,VWS V13.01,2013-12-25 09:32:00,
2013-12-25 02:37:00,19.6,1.2,30.11,ESE,105,2.7,3.1,44,0.00,,CLR,0.00,VWS V13.01,2013-12-25 09:37:00,
2013-12-25 02:42:00,19.2,0.9,30.11,ESE,105,0.0,3.1,44,0.00,,CLR,0.00,VWS V13.01,2013-12-25 09:42:00,
2013-12-25 02:47:00,19.4,1.1,30.11,ESE,105,0.0,0.0,44,0.00,,CLR,0.00,VWS V13.01,2013-12-25 09:47:00,
2013-12-25 02:52:00,19.4,1.5,30.11,ESE,105,0.0,0.0,45,0.00,,CLR,0.00,VWS V13.01,2013-12-25 09:52:00,
2013-12-25 02:57:00,19.2,1.4,30.11,ESE,105,0.0,0.0,45,0.00,,CLR,0.00,VWS V13.01,2013-12-25 09:57:00,
2013-12-25 03:02:00,18.9,1.0,30.11,ESE,105,0.0,0.0,45,0.00,,CLR,0.00,VWS V13.01,2013-12-25 10:02:00,
2013-12-25 03:07:00,18.5,0.7,30.11,ESE,105,0.0,0.0,45,0.00,,CLR,0.00,VWS V13.01,2013-12-25 10:07:00,
2013-12-25 03:12:00,18.3,0.6,30.11,ESE,105,0.0,0.0,45,0.00,,CLR,0.00,VWS V13.01,2013-12-25 10:12:00,
2013-12-25 03:17:00,18.5,0.7,30.11,ESE,105,0.0,0.0,45,0.00,,CLR,0.00,VWS V13.01,2013-12-25 10:17:00,
2013-12-25 03:22:00,18.5,0.7,30.11,ESE,105,0.0,3.1,45,0.00,,CLR,0.00,VWS V13.01,2013-12-25 10:22:00,
2013-12-25 03:27:00,18.5,0.7,30.11,ESE,105,0.0,3.1,45,0.00,,CLR,0.00,VWS V13.01,2013-12-25 10:27:00,
2013-12-25 03:32:00,18.7,1.4,30.11,ESE,105,0.0,3.1,46,0.00,,CLR,0.00,VWS V13.01,2013-12-25 10:32:00,
2013-12-25 03:37:00,18.5,1.2,30.11,ESE,105,0.0,3.1,46,0.00,,CLR,0.00,VWS V13.01,2013-12-25 10:37:00,
2013-12-25 03:42:00,18.7,1.4,30.14,ESE,105,0.0,3.1,46,0.00,,CLR,0.00,VWS V13.01,2013-12-25 10:42:00,
2013-12-25 03:48:00,18.9,1.5,30.14,ESE,105,0.0,0.0,46,0.00,,CLR,0.00,VWS V13.01,2013-12-25 10:48:00,
2013-12-25 03:53:00,19.0,1.7,30.14,ESE,105,0.0,0.0,46,0.00,,CLR,0.00,VWS V13.01,2013-12-25 10:53:00,
2013-12-25 03:58:00,19.0,1.7,30.14,ESE,105,0.0,0.0,46,0.00,,CLR,0.00,VWS V13.01,2013-12-25 10:58:00,
2013-12-25 04:03:00,19.0,1.7,30.14,ESE,105,0.0,0.0,46,0.00,,FEW220,0.00,VWS V13.01,2013-12-25 11:03:00,
2013-12-25 04:08:00,18.9,1.5,30.14,ESE,105,0.0,0.0,46,0.00,,FEW220,0.00,VWS V13.01,2013-12-25 11:08:00,
2013-12-25 04:13:00,18.7,1.4,30.14,ESE,105,0.0,0.0,46,0.00,,FEW220,0.00,VWS V13.01,2013-12-25 11:13:00,
2013-12-25 04:18:00,18.7,1.4,30.14,ESE,105,2.2,3.1,46,0.00,,FEW220,0.00,VWS V13.01,2013-12-25 11:18:00,
2013-12-25 04:23:00,18.5,1.2,30.14,ESE,105,3.1,3.6,46,0.00,,FEW220,0.00,VWS V13.01,2013-12-25 11:23:00,
2013-12-25 04:28:00,18.5,1.2,30.14,ESE,105,0.0,3.6,46,0.00,,FEW220,0.00,VWS V13.01,2013-12-25 11:28:00,
2013-12-25 04:33:00,18.1,0.9,30.14,ESE,105,0.0,0.0,46,0.00,,FEW220,0.00,VWS V13.01,2013-12-25 11:33:00,
2013-12-25 04:38:00,18.0,0.7,30.14,ESE,105,0.0,0.0,46,0.00,,FEW220,0.00,VWS V13.01,2013-12-25 11:38:00,
2013-12-25 04:43:00,17.6,0.8,30.14,ESE,105,0.0,0.0,47,0.00,,FEW220,0.00,VWS V13.01,2013-12-25 11:43:00,
2013-12-25 04:48:00,17.4,0.6,30.14,ESE,105,0.0,0.0,47,0.00,,FEW220,0.00,VWS V13.01,2013-12-25 11:48:00,
2013-12-25 04:53:00,17.6,0.8,30.14,ESE,105,0.0,0.0,47,0.00,,FEW220,0.00,VWS V13.01,2013-12-25 11:53:00,
2013-12-25 04:58:00,17.6,0.8,30.14,ESE,105,0.0,0.0,47,0.00,,FEW220,0.00,VWS V13.01,2013-12-25 11:58:00,
2013-12-25 05:03:00,17.2,0.5,30.14,ESE,105,0.0,0.0,47,0.00,,SCT220,0.00,VWS V13.01,2013-12-25 12:03:00,
2013-12-25 05:08:00,17.1,0.3,30.14,ESE,105,0.0,0.0,47,0.00,,SCT220,0.00,VWS V13.01,2013-12-25 12:08:00,
2013-12-25 05:13:00,16.7,0.4,30.16,ESE,105,3.6,3.6,48,0.00,,SCT220,0.00,VWS V13.01,2013-12-25 12:13:00,
2013-12-25 05:18:00,16.7,0.9,30.16,ESE,106,0.0,2.7,49,0.00,,SCT220,0.00,VWS V13.01,2013-12-25 12:18:00,
2013-12-25 05:23:00,16.7,0.9,30.16,ESE,106,0.0,2.7,49,0.00,,SCT220,0.00,VWS V13.01,2013-12-25 12:23:00,
2013-12-25 05:28:00,17.1,1.2,30.16,ESE,106,0.0,2.7,49,0.00,,SCT220,0.00,VWS V13.01,2013-12-25 12:28:00,
2013-12-25 05:33:00,17.4,1.5,30.16,ESE,106,0.0,0.0,49,0.00,,SCT220,0.00,VWS V13.01,2013-12-25 12:33:00,
2013-12-25 05:38:00,17.4,1.5,30.16,ESE,106,0.0,0.0,49,0.00,,SCT220,0.00,VWS V13.01,2013-12-25 12:38:00,
2013-12-25 05:43:00,17.2,1.4,30.16,ESE,106,0.0,0.0,49,0.00,,SCT220,0.00,VWS V13.01,2013-12-25 12:43:00,
2013-12-25 05:48:00,17.2,1.4,30.16,ESE,106,0.0,0.0,49,0.00,,SCT220,0.00,VWS V13.01,2013-12-25 12:48:00,
2013-12-25 05:53:00,17.1,1.2,30.16,ESE,106,0.0,0.0,49,0.00,,SCT220,0.00,VWS V13.01,2013-12-25 12:53:00,
2013-12-25 05:58:00,16.7,0.9,30.19,ESE,106,0.0,0.0,49,0.00,,SCT220,0.00,VWS V13.01,2013-12-25 12:58:00,
2013-12-25 06:03:00,16.2,0.4,30.19,ESE,106,0.0,0.0,49,0.00,,FEW200,0.00,VWS V13.01,2013-12-25 13:03:00,
2013-12-25 06:08:00,16.2,0.4,30.19,ESE,106,0.0,0.0,49,0.00,,FEW200,0.00,VWS V13.01,2013-12-25 13:08:00,
2013-12-25 06:13:00,16.5,0.7,30.19,ESE,106,0.0,0.0,49,0.00,,FEW200,0.00,VWS V13.01,2013-12-25 13:13:00,
2013-12-25 06:18:00,16.2,0.4,30.19,ESE,106,0.0,0.0,49,0.00,,FEW200,0.00,VWS V13.01,2013-12-25 13:18:00,
2013-12-25 06:23:00,16.0,0.2,30.19,ESE,106,0.0,0.0,49,0.00,,FEW200,0.00,VWS V13.01,2013-12-25 13:23:00,
2013-12-25 06:28:00,16.2,0.8,30.19,ESE,106,2.2,3.1,50,0.00,,FEW200,0.00,VWS V13.01,2013-12-25 13:28:00,
2013-12-25 06:33:00,16.9,1.5,30.19,ESE,106,0.0,3.1,50,0.00,,FEW200,0.00,VWS V13.01,2013-12-25 13:33:00,
2013-12-25 06:38:00,17.1,1.6,30.19,ESE,106,0.0,3.1,50,0.00,,FEW200,0.00,VWS V13.01,2013-12-25 13:38:00,
2013-12-25 06:44:00,16.9,1.0,30.19,ESE,106,2.7,3.1,49,0.00,,FEW200,0.00,VWS V13.01,2013-12-25 13:44:00,
2013-12-25 06:49:00,16.9,1.0,30.19,ESE,106,0.0,2.7,49,0.00,,FEW200,0.00,VWS V13.01,2013-12-25 13:49:00,
2013-12-25 06:54:00,16.7,0.9,30.19,ESE,106,0.0,2.7,49,0.00,,FEW200,0.00,VWS V13.01,2013-12-25 13:54:00,
2013-12-25 06:59:00,16.7,0.9,30.19,ESE,106,2.7,3.1,49,0.00,,FEW200,0.00,VWS V13.01,2013-12-25 13:59:00,
2013-12-25 07:04:00,16.7,0.9,30.19,ESE,106,0.0,0.0,49,0.00,,FEW200,0.00,VWS V13.01,2013-12-25 14:04:00,
2013-12-25 07:09:00,16.5,0.3,30.19,ESE,106,0.0,0.0,48,0.00,,FEW200,0.00,VWS V13.01,2013-12-25 14:09:00,
2013-12-25 07:14:00,16.0,-0.2,30.19,ESE,106,0.0,0.0,48,0.00,,FEW200,0.00,VWS V13.01,2013-12-25 14:14:00,
2013-12-25 07:19:00,15.6,-0.1,30.19,ESE,106,0.0,0.0,49,0.00,,FEW200,0.00,VWS V13.01,2013-12-25 14:19:00,
2013-12-25 07:24:00,15.4,-0.3,30.19,ESE,106,0.0,0.0,49,0.00,,FEW200,0.00,VWS V13.01,2013-12-25 14:24:00,
2013-12-25 07:29:00,15.6,-0.1,30.19,ESE,106,0.0,0.0,49,0.00,,FEW200,0.00,VWS V13.01,2013-12-25 14:29:00,
2013-12-25 07:34:00,15.8,0.0,30.19,ESE,106,0.0,0.0,49,0.00,,FEW200,0.00,VWS V13.01,2013-12-25 14:34:00,
2013-12-25 07:39:00,15.8,0.0,30.19,ESE,106,0.0,0.0,49,0.00,,FEW200,0.00,VWS V13.01,2013-12-25 14:39:00,
2013-12-25 07:44:00,15.4,-0.3,30.22,ESE,105,0.0,0.0,49,0.00,,FEW200,0.00,VWS V13.01,2013-12-25 14:44:00,
2013-12-25 07:49:00,16.0,0.2,30.22,ESE,106,0.0,3.1,49,0.00,,FEW200,0.00,VWS V13.01,2013-12-25 14:49:00,
2013-12-25 07:54:00,16.2,0.8,30.22,ESE,106,0.0,3.1,50,0.00,,FEW200,0.00,VWS V13.01,2013-12-25 14:54:00,
2013-12-25 07:59:00,16.9,1.5,30.22,ESE,106,0.0,3.1,50,0.00,,FEW200,0.00,VWS V13.01,2013-12-25 14:59:00,
2013-12-25 08:04:00,18.1,2.2,30.22,SW,218,2.2,5.8,49,0.00,,CLR,0.00,VWS V13.01,2013-12-25 15:04:00,
2013-12-25 08:09:00,19.0,2.6,30.22,SW,226,2.2,5.8,48,0.00,,CLR,0.00,VWS V13.01,2013-12-25 15:09:00,
2013-12-25 08:14:00,19.8,2.8,30.22,SW,226,2.7,5.8,47,0.00,,CLR,0.00,VWS V13.01,2013-12-25 15:14:00,
2013-12-25 08:19:00,20.3,2.8,30.22,SSW,200,2.2,2.7,46,0.00,,CLR,0.00,VWS V13.01,2013-12-25 15:19:00,
2013-12-25 08:24:00,21.0,3.0,30.22,SSW,196,2.7,4.0,45,0.00,,CLR,0.00,VWS V13.01,2013-12-25 15:24:00,
2013-12-25 08:29:00,21.2,2.7,30.22,SW,223,3.6,4.0,44,0.00,,CLR,0.00,VWS V13.01,2013-12-25 15:29:00,
2013-12-25 08:34:00,21.7,2.2,30.22,WSW,237,3.1,5.8,42,0.00,,CLR,0.00,VWS V13.01,2013-12-25 15:34:00,
2013-12-25 08:39:00,22.3,2.7,30.22,SSW,198,3.1,5.8,42,0.00,,CLR,0.00,VWS V13.01,2013-12-25 15:39:00,
2013-12-25 08:44:00,23.2,2.5,30.22,ESE,110,2.7,5.8,40,0.00,,CLR,0.00,VWS V13.01,2013-12-25 15:44:00,
2013-12-25 08:49:00,24.1,2.7,30.22,SSE,164,3.1,5.4,39,0.00,,CLR,0.00,VWS V13.01,2013-12-25 15:49:00,
2013-12-25 08:54:00,25.0,2.4,30.22,SE,144,0.0,5.4,37,0.00,,CLR,0.00,VWS V13.01,2013-12-25 15:54:00,
2013-12-25 08:59:00,25.9,2.6,30.25,SSW,205,0.0,5.4,36,0.00,,CLR,0.00,VWS V13.01,2013-12-25 15:59:00,
2013-12-25 09:04:00,26.8,2.8,30.25,SE,142,2.7,3.1,35,0.00,,CLR,0.00,VWS V13.01,2013-12-25 16:04:00,
2013-12-25 09:09:00,27.9,3.8,30.25,SSE,156,3.1,3.1,35,0.00,,CLR,0.00,VWS V13.01,2013-12-25 16:09:00,
2013-12-25 09:14:00,28.6,3.1,30.22,South,189,3.6,4.0,33,0.00,,CLR,0.00,VWS V13.01,2013-12-25 16:14:00,
2013-12-25 09:19:00,29.3,2.4,30.22,South,187,5.4,6.3,31,0.00,,CLR,0.00,VWS V13.01,2013-12-25 16:19:00,
2013-12-25 09:25:00,30.0,2.3,30.22,SE,139,4.9,7.6,30,0.00,,CLR,0.00,VWS V13.01,2013-12-25 16:25:00,
2013-12-25 09:30:00,30.7,1.5,30.22,SSE,151,3.1,7.6,28,0.00,,CLR,0.00,VWS V13.01,2013-12-25 16:30:00,
2013-12-25 09:35:00,31.8,0.0,30.22,SSE,149,4.0,5.8,25,0.00,,CLR,0.00,VWS V13.01,2013-12-25 16:35:00,
2013-12-25 09:40:00,32.5,-1.1,30.22,SSE,150,4.9,6.3,23,0.00,,CLR,0.00,VWS V13.01,2013-12-25 16:40:00,
2013-12-25 09:45:00,33.1,-0.7,30.22,SSW,206,4.0,6.3,23,0.00,,CLR,0.00,VWS V13.01,2013-12-25 16:45:00,
2013-12-25 09:50:00,33.4,-3.3,30.22,South,180,2.7,5.8,20,0.00,,CLR,0.00,VWS V13.01,2013-12-25 16:50:00,
2013-12-25 09:55:00,34.2,-2.7,30.22,SSE,156,4.0,8.3,20,0.00,,CLR,0.00,VWS V13.01,2013-12-25 16:55:00,
2013-12-25 10:00:00,34.9,-2.1,30.22,SE,124,3.1,3.1,20,0.00,,CLR,0.00,VWS V13.01,2013-12-25 17:00:00,
2013-12-25 10:05:00,35.6,-2.6,30.22,SSE,147,5.4,5.4,19,0.00,,CLR,0.00,VWS V13.01,2013-12-25 17:05:00,
2013-12-25 10:10:00,36.1,-4.5,30.22,SE,136,4.9,5.4,17,0.00,,CLR,0.00,VWS V13.01,2013-12-25 17:10:00,
2013-12-25 10:15:00,36.5,-4.2,30.22,ESE,113,3.6,4.9,17,0.00,,CLR,0.00,VWS V13.01,2013-12-25 17:15:00,
2013-12-25 10:20:00,37.0,-3.7,30.22,SW,215,5.8,8.3,17,0.00,,CLR,0.00,VWS V13.01,2013-12-25 17:20:00,
2013-12-25 10:25:00,37.0,-3.7,30.22,SSE,161,5.8,8.3,17,0.00,,CLR,0.00,VWS V13.01,2013-12-25 17:25:00,
2013-12-25 10:30:00,37.4,-4.7,30.22,SSE,163,4.9,4.9,16,0.00,,CLR,0.00,VWS V13.01,2013-12-25 17:30:00,
2013-12-25 10:35:00,37.9,-4.2,30.22,South,190,2.7,6.7,16,0.00,,CLR,0.00,VWS V13.01,2013-12-25 17:35:00,
2013-12-25 10:40:00,38.5,-3.8,30.22,South,170,5.8,8.1,16,0.00,,CLR,0.00,VWS V13.01,2013-12-25 17:40:00,
2013-12-25 10:45:00,38.5,-3.8,30.22,SSE,154,3.6,4.9,16,0.00,,CLR,0.00,VWS V13.01,2013-12-25 17:45:00,
2013-12-25 10:50:00,39.2,-3.2,30.22,South,169,4.0,6.3,16,0.00,,CLR,0.00,VWS V13.01,2013-12-25 17:50:00,
2013-12-25 10:55:00,39.7,-2.8,30.22,SSW,208,5.4,6.3,16,0.00,,CLR,0.00,VWS V13.01,2013-12-25 17:55:00,
2013-12-25 11:00:00,39.9,-2.6,30.19,SE,133,2.7,4.0,16,0.00,,CLR,0.00,VWS V13.01,2013-12-25 18:00:00,
2013-12-25 11:05:00,40.3,-6.7,30.19,ESE,115,5.4,10.5,13,0.00,,CLR,0.00,VWS V13.01,2013-12-25 18:05:00,
2013-12-25 11:10:00,40.3,-6.7,30.19,ESE,120,5.8,11.0,13,0.00,,CLR,0.00,VWS V13.01,2013-12-25 18:10:00,
2013-12-25 11:15:00,39.9,-6.9,30.19,SSE,152,4.0,5.4,13,0.00,,CLR,0.00,VWS V13.01,2013-12-25 18:15:00,
2013-12-25 11:20:00,40.3,-6.7,30.19,SSE,153,3.1,8.1,13,0.00,,CLR,0.00,VWS V13.01,2013-12-25 18:20:00,
2013-12-25 11:25:00,40.5,-6.5,30.19,South,183,8.3,11.0,13,0.00,,CLR,0.00,VWS V13.01,2013-12-25 18:25:00,
2013-12-25 11:30:00,40.6,-6.4,30.19,SE,137,5.4,6.3,13,0.00,,CLR,0.00,VWS V13.01,2013-12-25 18:30:00,
2013-12-25 11:35:00,41.0,-6.1,30.19,SE,131,5.8,8.1,13,0.00,,CLR,0.00,VWS V13.01,2013-12-25 18:35:00,
2013-12-25 11:40:00,41.2,-5.9,30.19,SSE,164,2.7,8.7,13,0.00,,CLR,0.00,VWS V13.01,2013-12-25 18:40:00,
2013-12-25 11:45:00,41.7,-5.5,30.19,SE,136,5.8,7.6,13,0.00,,CLR,0.00,VWS V13.01,2013-12-25 18:45:00,
2013-12-25 11:50:00,42.1,-5.2,30.19,SSW,193,2.7,7.6,13,0.00,,CLR,0.00,VWS V13.01,2013-12-25 18:50:00,
2013-12-25 11:55:00,42.3,-5.1,30.19,SSE,168,4.0,7.6,13,0.00,,CLR,0.00,VWS V13.01,2013-12-25 18:55:00,
2013-12-25 12:01:00,42.3,-5.1,30.16,SE,126,5.8,6.3,13,0.00,,CLR,0.00,VWS V13.01,2013-12-25 19:01:00,
2013-12-25 12:06:00,42.8,-4.6,30.16,SE,126,4.0,6.3,13,0.00,,CLR,0.00,VWS V13.01,2013-12-25 19:06:00,
2013-12-25 12:11:00,43.2,-4.3,30.16,ESE,122,2.7,7.6,13,0.00,,CLR,0.00,VWS V13.01,2013-12-25 19:11:00,
2013-12-25 12:16:00,43.5,-4.1,30.16,South,173,3.6,3.6,13,0.00,,CLR,0.00,VWS V13.01,2013-12-25 19:16:00,
2013-12-25 12:21:00,43.5,-4.1,30.16,East,86,5.8,8.7,13,0.00,,CLR,0.00,VWS V13.01,2013-12-25 19:21:00,
2013-12-25 12:26:00,43.5,-4.1,30.16,ESE,117,5.8,8.7,13,0.00,,CLR,0.00,VWS V13.01,2013-12-25 19:26:00,
2013-12-25 12:31:00,43.2,-4.3,30.16,ESE,119,7.6,8.1,13,0.00,,CLR,0.00,VWS V13.01,2013-12-25 19:31:00,
2013-12-25 12:36:00,43.2,-4.3,30.16,SSE,165,4.9,8.1,13,0.00,,CLR,0.00,VWS V13.01,2013-12-25 19:36:00,
2013-12-25 12:41:00,43.7,-3.9,30.16,SE,135,7.6,8.1,13,0.00,,CLR,0.00,VWS V13.01,2013-12-25 19:41:00,
2013-12-25 12:44:00,43.7,-3.9,30.16,SE,146,2.7,8.1,13,0.00,,CLR,0.00,VWS V13.01,2013-12-25 19:44:00,
2013-12-25 12:49:00,44.1,-3.6,30.16,SE,134,5.4,7.2,13,0.00,,CLR,0.00,VWS V13.01,2013-12-25 19:49:00,
2013-12-25 12:54:00,44.1,-3.6,30.16,SE,128,6.7,8.1,13,0.00,,CLR,0.00,VWS V13.01,2013-12-25 19:54:00,
2013-12-25 12:59:00,44.2,-3.5,30.14,SSE,150,4.0,8.1,13,0.00,,CLR,0.00,VWS V13.01,2013-12-25 19:59:00,
2013-12-25 13:04:00,44.6,-4.9,30.14,SSE,148,3.6,6.3,12,0.00,,CLR,0.00,VWS V13.01,2013-12-25 20:04:00,
2013-12-25 13:09:00,44.8,-4.7,30.14,SE,133,3.1,8.3,12,0.00,,CLR,0.00,VWS V13.01,2013-12-25 20:09:00,
2013-12-25 13:14:00,44.8,-4.7,30.14,ENE,71,5.4,8.3,12,0.00,,CLR,0.00,VWS V13.01,2013-12-25 20:14:00,
2013-12-25 13:19:00,45.0,-4.6,30.14,SE,137,4.9,6.3,12,0.00,,CLR,0.00,VWS V13.01,2013-12-25 20:19:00,
2013-12-25 13:24:00,45.1,-4.4,30.14,SE,139,2.7,6.3,12,0.00,,CLR,0.00,VWS V13.01,2013-12-25 20:24:00,
2013-12-25 13:29:00,45.5,-4.2,30.14,NE,51,2.2,6.3,12,0.00,,CLR,0.00,VWS V13.01,2013-12-25 20:29:00,
2013-12-25 13:34:00,45.9,-3.9,30.14,ESE,117,2.7,5.8,12,0.00,,CLR,0.00,VWS V13.01,2013-12-25 20:34:00,
2013-12-25 13:39:00,45.9,-3.9,30.14,ESE,123,3.6,6.3,12,0.00,,CLR,0.00,VWS V13.01,2013-12-25 20:39:00,
2013-12-25 13:44:00,46.0,-3.7,30.14,NE,55,3.6,6.3,12,0.00,,CLR,0.00,VWS V13.01,2013-12-25 20:44:00,
2013-12-25 13:49:00,46.2,-3.6,30.14,West,262,2.2,3.6,12,0.00,,CLR,0.00,VWS V13.01,2013-12-25 20:49:00,
2013-12-25 13:54:00,46.2,-3.6,30.14,SE,137,3.6,7.6,12,0.00,,CLR,0.00,VWS V13.01,2013-12-25 20:54:00,
2013-12-25 13:59:00,46.2,-3.6,30.14,East,101,3.6,7.6,12,0.00,,CLR,0.00,VWS V13.01,2013-12-25 20:59:00,
2013-12-25 14:04:00,46.0,-3.7,30.14,ESE,109,3.6,5.8,12,0.00,,CLR,0.00,VWS V13.01,2013-12-25 21:04:00,
2013-12-25 14:09:00,46.6,-3.3,30.14,ESE,109,3.1,5.8,12,0.00,,CLR,0.00,VWS V13.01,2013-12-25 21:09:00,
2013-12-25 14:14:00,47.1,-2.9,30.14,SSE,156,6.3,6.3,12,0.00,,CLR,0.00,VWS V13.01,2013-12-25 21:14:00,
2013-12-25 14:19:00,46.8,-3.2,30.14,SE,131,2.7,6.3,12,0.00,,CLR,0.00,VWS V13.01,2013-12-25 21:19:00,
2013-12-25 14:24:00,46.8,-3.2,30.14,East,97,2.7,6.3,12,0.00,,CLR,0.00,VWS V13.01,2013-12-25 21:24:00,
2013-12-25 14:29:00,46.8,-3.2,30.14,East,93,2.7,6.3,12,0.00,,CLR,0.00,VWS V13.01,2013-12-25 21:29:00,
2013-12-25 14:34:00,46.9,-3.0,30.14,ENE,62,3.6,4.0,12,0.00,,CLR,0.00,VWS V13.01,2013-12-25 21:34:00,
2013-12-25 14:39:00,46.9,-3.0,30.14,East,92,3.6,5.4,12,0.00,,CLR,0.00,VWS V13.01,2013-12-25 21:39:00,
2013-12-25 14:44:00,46.8,-3.2,30.14,East,83,2.7,5.4,12,0.00,,CLR,0.00,VWS V13.01,2013-12-25 21:44:00,
2013-12-25 14:49:00,46.9,-3.0,30.14,East,95,2.7,4.0,12,0.00,,CLR,0.00,VWS V13.01,2013-12-25 21:49:00,
2013-12-25 14:55:00,46.9,-3.0,30.14,East,96,3.6,6.3,12,0.00,,CLR,0.00,VWS V13.01,2013-12-25 21:55:00,
2013-12-25 15:00:00,46.9,-3.0,30.14,ENE,59,3.6,6.3,12,0.00,,CLR,0.00,VWS V13.01,2013-12-25 22:00:00,
2013-12-25 15:05:00,46.8,-3.2,30.14,East,92,2.2,4.0,12,0.00,,FEW220,0.00,VWS V13.01,2013-12-25 22:05:00,
2013-12-25 15:10:00,46.9,-3.0,30.14,ENE,69,2.2,4.5,12,0.00,,FEW220,0.00,VWS V13.01,2013-12-25 22:10:00,
2013-12-25 15:15:00,47.1,-2.9,30.14,ENE,70,0.0,4.5,12,0.00,,FEW220,0.00,VWS V13.01,2013-12-25 22:15:00,
2013-12-25 15:20:00,47.5,-2.6,30.14,ENE,71,2.7,4.0,12,0.00,,FEW220,0.00,VWS V13.01,2013-12-25 22:20:00,
2013-12-25 15:25:00,47.1,-2.9,30.14,NE,44,3.1,4.0,12,0.00,,FEW220,0.00,VWS V13.01,2013-12-25 22:25:00,
2013-12-25 15:30:00,46.9,-3.0,30.14,NE,55,2.7,4.0,12,0.00,,FEW220,0.00,VWS V13.01,2013-12-25 22:30:00,
2013-12-25 15:35:00,46.8,-3.2,30.14,NE,46,0.0,5.4,12,0.00,,FEW220,0.00,VWS V13.01,2013-12-25 22:35:00,
2013-12-25 15:40:00,46.8,-3.2,30.14,NE,56,2.2,5.4,12,0.00,,FEW220,0.00,VWS V13.01,2013-12-25 22:40:00,
2013-12-25 15:45:00,46.8,-3.2,30.14,NE,56,2.2,5.4,12,0.00,,FEW220,0.00,VWS V13.01,2013-12-25 22:45:00,
2013-12-25 15:50:00,46.8,-3.2,30.14,NE,56,2.7,3.6,12,0.00,,FEW220,0.00,VWS V13.01,2013-12-25 22:50:00,
2013-12-25 15:55:00,46.8,-3.2,30.14,NE,56,0.0,3.6,12,0.00,,FEW220,0.00,VWS V13.01,2013-12-25 22:55:00,
2013-12-25 16:00:00,46.6,-3.3,30.14,NE,56,0.0,3.1,12,0.00,,FEW220,0.00,VWS V13.01,2013-12-25 23:00:00,
2013-12-25 16:05:00,46.4,-3.4,30.14,NE,56,0.0,3.1,12,0.00,,FEW220,0.00,VWS V13.01,2013-12-25 23:05:00,
2013-12-25 16:10:00,46.2,-3.6,30.14,ENE,57,0.0,3.1,12,0.00,,FEW220,0.00,VWS V13.01,2013-12-25 23:10:00,
2013-12-25 16:15:00,45.7,-4.0,30.11,ENE,57,0.0,0.0,12,0.00,,FEW220,0.00,VWS V13.01,2013-12-25 23:15:00,
2013-12-25 16:20:00,45.1,-4.4,30.11,ENE,57,0.0,0.0,12,0.00,,FEW220,0.00,VWS V13.01,2013-12-25 23:20:00,
2013-12-25 16:25:00,44.6,-4.9,30.11,ENE,57,0.0,0.0,12,0.00,,FEW220,0.00,VWS V13.01,2013-12-25 23:25:00,
2013-12-25 16:30:00,44.1,-3.6,30.11,ENE,57,0.0,0.0,13,0.00,,FEW220,0.00,VWS V13.01,2013-12-25 23:30:00,
2013-12-25 16:35:00,43.3,-4.2,30.11,ENE,57,0.0,0.0,13,0.00,,FEW220,0.00,VWS V13.01,2013-12-25 23:35:00,
2013-12-25 16:40:00,42.6,-4.8,30.11,NE,56,0.0,0.0,13,0.00,,FEW220,0.00,VWS V13.01,2013-12-25 23:40:00,
2013-12-25 16:45:00,42.1,-5.2,30.11,NE,56,0.0,0.0,13,0.00,,FEW220,0.00,VWS V13.01,2013-12-25 23:45:00,
2013-12-25 16:50:00,41.4,-5.8,30.11,NE,56,0.0,0.0,13,0.00,,FEW220,0.00,VWS V13.01,2013-12-25 23:50:00,
2013-12-25 16:55:00,40.8,-6.2,30.11,ENE,57,0.0,0.0,13,0.00,,FEW220,0.00,VWS V13.01,2013-12-25 23:55:00,
2013-12-25 17:00:00,40.3,-6.7,30.11,NE,56,0.0,0.0,13,0.00,,FEW220,0.00,VWS V13.01,2013-12-26 00:00:00,
2013-12-25 17:05:00,39.7,-7.1,30.11,NE,56,0.0,0.0,13,0.00,,FEW220,0.00,VWS V13.01,2013-12-26 00:05:00,
2013-12-25 17:10:00,38.8,-6.3,30.11,ENE,57,0.0,0.0,14,0.00,,FEW220,0.00,VWS V13.01,2013-12-26 00:10:00,
2013-12-25 17:15:00,38.3,-6.7,30.11,ENE,57,0.0,0.0,14,0.00,,FEW220,0.00,VWS V13.01,2013-12-26 00:15:00,
2013-12-25 17:20:00,37.6,-7.3,30.11,ENE,57,0.0,0.0,14,0.00,,FEW220,0.00,VWS V13.01,2013-12-26 00:20:00,
2013-12-25 17:25:00,36.9,-7.9,30.11,ENE,57,0.0,0.0,14,0.00,,FEW220,0.00,VWS V13.01,2013-12-26 00:25:00,
2013-12-25 17:30:00,36.3,-8.3,30.11,ENE,57,0.0,0.0,14,0.00,,FEW220,0.00,VWS V13.01,2013-12-26 00:30:00,
2013-12-25 17:35:00,36.0,-8.6,30.11,NE,56,0.0,0.0,14,0.00,,FEW220,0.00,VWS V13.01,2013-12-26 00:35:00,
2013-12-25 17:40:00,35.4,-7.6,30.11,ENE,57,0.0,0.0,15,0.00,,FEW220,0.00,VWS V13.01,2013-12-26 00:40:00,
2013-12-25 17:45:00,35.1,-7.9,30.14,ENE,57,0.0,0.0,15,0.00,,FEW220,0.00,VWS V13.01,2013-12-26 00:45:00,
2013-12-25 17:50:00,34.3,-8.5,30.14,SSE,156,0.0,4.0,15,0.00,,FEW220,0.00,VWS V13.01,2013-12-26 00:50:00,
2013-12-25 17:55:00,33.8,-8.9,30.14,SSE,156,0.0,4.0,15,0.00,,FEW220,0.00,VWS V13.01,2013-12-26 00:55:00,
2013-12-25 18:00:00,33.3,-9.4,30.11,SSE,156,0.0,0.0,15,0.00,,FEW220,0.00,VWS V13.01,2013-12-26 01:00:00,
2013-12-25 18:05:00,33.1,-9.5,30.11,SSE,157,0.0,0.0,15,0.00,,FEW220,0.00,VWS V13.01,2013-12-26 01:05:00,
2013-12-25 18:10:00,33.1,-9.5,30.11,SSE,156,0.0,0.0,15,0.00,,FEW220,0.00,VWS V13.01,2013-12-26 01:10:00,
2013-12-25 18:16:00,33.1,-9.5,30.11,SE,142,0.0,3.1,15,0.00,,FEW220,0.00,VWS V13.01,2013-12-26 01:16:00,
2013-12-25 18:21:00,33.1,-9.5,30.11,SE,142,0.0,3.1,15,0.00,,FEW220,0.00,VWS V13.01,2013-12-26 01:21:00,
2013-12-25 18:26:00,32.7,-9.8,30.11,SE,142,0.0,3.1,15,0.00,,FEW220,0.00,VWS V13.01,2013-12-26 01:26:00,
2013-12-25 18:31:00,32.9,-9.7,30.11,SE,145,0.0,0.0,15,0.00,,FEW220,0.00,VWS V13.01,2013-12-26 01:31:00,
2013-12-25 18:36:00,33.1,-9.5,30.11,SE,145,0.0,2.2,15,0.00,,FEW220,0.00,VWS V13.01,2013-12-26 01:36:00,
2013-12-25 18:41:00,33.1,-9.5,30.11,SE,146,2.7,2.7,15,0.00,,FEW220,0.00,VWS V13.01,2013-12-26 01:41:00,
2013-12-25 18:46:00,32.5,-10.0,30.11,SE,145,0.0,0.0,15,0.00,,FEW220,0.00,VWS V13.01,2013-12-26 01:46:00,
2013-12-25 18:51:00,32.4,-6.4,30.11,SSW,198,3.6,3.6,18,0.00,,FEW220,0.00,VWS V13.01,2013-12-26 01:51:00,
2013-12-25 18:56:00,32.4,-6.4,30.11,SW,218,0.0,4.0,18,0.00,,FEW220,0.00,VWS V13.01,2013-12-26 01:56:00,
2013-12-25 19:01:00,32.2,-6.6,30.11,SSW,197,2.2,2.7,18,0.00,,FEW220,0.00,VWS V13.01,2013-12-26 02:01:00,
2013-12-25 19:06:00,31.6,-7.0,30.11,SSW,211,0.0,3.6,18,0.00,,CLR,0.00,VWS V13.01,2013-12-26 02:06:00,
2013-12-25 19:11:00,31.5,-7.2,30.11,SSW,211,0.0,3.6,18,0.00,,CLR,0.00,VWS V13.01,2013-12-26 02:11:00,
2013-12-25 19:16:00,31.1,-7.4,30.11,SSW,211,0.0,0.0,18,0.00,,CLR,0.00,VWS V13.01,2013-12-26 02:16:00,
2013-12-25 19:21:00,30.9,-7.6,30.11,SSW,193,2.2,3.6,18,0.00,,CLR,0.00,VWS V13.01,2013-12-26 02:21:00,
2013-12-25 19:26:00,30.7,-7.7,30.11,SSW,195,0.0,3.6,18,0.00,,CLR,0.00,VWS V13.01,2013-12-26 02:26:00,
2013-12-25 19:31:00,30.6,-7.9,30.11,SSW,194,0.0,0.0,18,0.00,,CLR,0.00,VWS V13.01,2013-12-26 02:31:00,
2013-12-25 19:36:00,30.4,-8.0,30.11,SSW,195,0.0,0.0,18,0.00,,CLR,0.00,VWS V13.01,2013-12-26 02:36:00,
2013-12-25 19:41:00,30.2,-8.2,30.11,SSW,194,0.0,0.0,18,0.00,,CLR,0.00,VWS V13.01,2013-12-26 02:41:00,
2013-12-25 19:46:00,29.8,-8.5,30.11,South,169,0.0,0.0,18,0.00,,CLR,0.00,VWS V13.01,2013-12-26 02:46:00,
2013-12-25 19:51:00,29.7,-6.5,30.11,South,169,0.0,0.0,20,0.00,,CLR,0.00,VWS V13.01,2013-12-26 02:51:00,
2013-12-25 19:56:00,29.3,-6.8,30.11,South,169,0.0,0.0,20,0.00,,CLR,0.00,VWS V13.01,2013-12-26 02:56:00,
2013-12-25 20:01:00,28.8,-7.2,30.11,South,169,0.0,0.0,20,0.00,,CLR,0.00,VWS V13.01,2013-12-26 03:01:00,
2013-12-25 20:06:00,28.8,-7.2,30.11,SSW,198,0.0,4.0,20,0.00,,CLR,0.00,VWS V13.01,2013-12-26 03:06:00,
2013-12-25 20:11:00,28.6,-7.4,30.11,SSW,199,0.0,4.0,20,0.00,,CLR,0.00,VWS V13.01,2013-12-26 03:11:00,
2013-12-25 20:16:00,28.6,-7.4,30.11,SSW,199,0.0,0.0,20,0.00,,CLR,0.00,VWS V13.01,2013-12-26 03:16:00,
2013-12-25 20:21:00,28.4,-6.5,30.11,SSW,199,0.0,0.0,21,0.00,,CLR,0.00,VWS V13.01,2013-12-26 03:21:00,
2013-12-25 20:26:00,28.2,-6.7,30.11,SSW,199,0.0,0.0,21,0.00,,CLR,0.00,VWS V13.01,2013-12-26 03:26:00,
2013-12-25 20:31:00,28.2,-4.8,30.11,SSW,199,0.0,0.0,23,0.00,,CLR,0.00,VWS V13.01,2013-12-26 03:31:00,
2013-12-25 20:36:00,28.0,-5.0,30.11,SSW,198,3.1,3.1,23,0.00,,CLR,0.00,VWS V13.01,2013-12-26 03:36:00,
2013-12-25 20:41:00,27.7,-5.3,30.11,SSW,199,0.0,3.1,23,0.00,,CLR,0.00,VWS V13.01,2013-12-26 03:41:00,
2013-12-25 20:46:00,27.7,-2.7,30.11,SSW,198,3.1,3.1,26,0.00,,CLR,0.00,VWS V13.01,2013-12-26 03:46:00,
2013-12-25 20:51:00,27.7,-2.7,30.11,South,175,2.2,3.1,26,0.00,,CLR,0.00,VWS V13.01,2013-12-26 03:51:00,
2013-12-25 20:56:00,27.7,-2.7,30.11,SE,132,2.7,3.6,26,0.00,,CLR,0.00,VWS V13.01,2013-12-26 03:56:00,
2013-12-25 21:01:00,27.5,-2.9,30.11,SE,131,0.0,2.7,26,0.00,,CLR,0.00,VWS V13.01,2013-12-26 04:01:00,
2013-12-25 21:07:00,27.5,-2.9,30.11,SE,136,3.1,3.6,26,0.00,,CLR,0.00,VWS V13.01,2013-12-26 04:07:00,
2013-12-25 21:12:00,27.7,-1.2,30.11,SE,146,0.0,3.6,28,0.00,,CLR,0.00,VWS V13.01,2013-12-26 04:12:00,
2013-12-25 21:17:00,27.3,-1.5,30.11,SSE,151,2.7,2.7,28,0.00,,CLR,0.00,VWS V13.01,2013-12-26 04:17:00,
2013-12-25 21:22:00,27.0,-1.8,30.11,SSE,151,0.0,2.7,28,0.00,,CLR,0.00,VWS V13.01,2013-12-26 04:22:00,
2013-12-25 21:27:00,26.8,-1.9,30.11,SSE,150,0.0,2.7,28,0.00,,CLR,0.00,VWS V13.01,2013-12-26 04:27:00,
2013-12-25 21:32:00,26.6,-1.4,30.11,SSE,151,0.0,0.0,29,0.00,,CLR,0.00,VWS V13.01,2013-12-26 04:32:00,
2013-12-25 21:37:00,26.4,-0.1,30.11,SSE,151,0.0,0.0,31,0.00,,CLR,0.00,VWS V13.01,2013-12-26 04:37:00,
2013-12-25 21:42:00,26.4,-0.1,30.11,SSE,151,0.0,0.0,31,0.00,,CLR,0.00,VWS V13.01,2013-12-26 04:42:00,
2013-12-25 21:47:00,26.4,-0.1,30.11,SSE,151,0.0,0.0,31,0.00,,CLR,0.00,VWS V13.01,2013-12-26 04:47:00,
2013-12-25 21:52:00,26.2,-0.3,30.11,SSE,151,0.0,0.0,31,0.00,,CLR,0.00,VWS V13.01,2013-12-26 04:52:00,
2013-12-25 21:57:00,26.1,0.2,30.11,SSE,151,0.0,0.0,32,0.00,,CLR,0.00,VWS V13.01,2013-12-26 04:57:00,
2013-12-25 22:01:00,26.1,0.2,30.11,SSE,151,0.0,0.0,32,0.00,,CLR,0.00,VWS V13.01,2013-12-26 05:01:00,
2013-12-25 22:02:00,26.1,0.2,30.11,SSE,151,0.0,0.0,32,0.00,,CLR,0.00,VWS V13.01,2013-12-26 05:02:00,
2013-12-25 22:07:00,26.1,0.2,30.11,SSE,150,3.1,3.6,32,0.00,,CLR,0.00,VWS V13.01,2013-12-26 05:07:00,
2013-12-25 22:12:00,26.1,0.2,30.11,SSE,167,2.2,3.6,32,0.00,,CLR,0.00,VWS V13.01,2013-12-26 05:12:00,
2013-12-25 22:17:00,26.6,0.7,30.11,SW,214,2.7,4.0,32,0.00,,CLR,0.00,VWS V13.01,2013-12-26 05:17:00,
2013-12-25 22:22:00,27.0,1.0,30.11,NW,315,0.0,4.5,32,0.00,,CLR,0.00,VWS V13.01,2013-12-26 05:22:00,
2013-12-25 22:27:00,27.1,1.2,30.08,SE,128,2.7,4.5,32,0.00,,CLR,0.00,VWS V13.01,2013-12-26 05:27:00,
2013-12-25 22:32:00,27.0,1.0,30.08,SE,128,0.0,0.0,32,0.00,,CLR,0.00,VWS V13.01,2013-12-26 05:32:00,
2013-12-25 22:37:00,27.0,1.0,30.08,SE,128,2.7,3.6,32,0.00,,CLR,0.00,VWS V13.01,2013-12-26 05:37:00,
2013-12-25 22:42:00,27.0,1.0,30.08,SE,127,0.0,3.6,32,0.00,,CLR,0.00,VWS V13.01,2013-12-26 05:42:00,
2013-12-25 22:47:00,26.8,0.9,30.08,SE,129,0.0,0.0,32,0.00,,CLR,0.00,VWS V13.01,2013-12-26 05:47:00,
2013-12-25 22:52:00,27.0,1.0,30.08,SE,129,0.0,0.0,32,0.00,,CLR,0.00,VWS V13.01,2013-12-26 05:52:00,
2013-12-25 22:57:00,26.8,0.2,30.08,SE,129,0.0,0.0,31,0.00,,CLR,0.00,VWS V13.01,2013-12-26 05:57:00,
2013-12-25 23:02:00,27.0,0.4,30.08,SE,138,0.0,2.7,31,0.00,,CLR,0.00,VWS V13.01,2013-12-26 06:02:00,
2013-12-25 23:07:00,27.5,0.8,30.08,SSW,193,2.2,4.0,31,0.00,,CLR,0.00,VWS V13.01,2013-12-26 06:07:00,
2013-12-25 23:12:00,27.5,0.8,30.08,SSW,193,0.0,4.0,31,0.00,,CLR,0.00,VWS V13.01,2013-12-26 06:12:00,
2013-12-25 23:17:00,28.0,1.3,30.08,SSE,154,2.7,2.7,31,0.00,,CLR,0.00,VWS V13.01,2013-12-26 06:17:00,
2013-12-25 23:22:00,28.9,1.4,30.08,SSE,147,2.2,4.0,30,0.00,,CLR,0.00,VWS V13.01,2013-12-26 06:22:00,
2013-12-25 23:27:00,29.8,2.2,30.05,SSE,147,0.0,4.0,30,0.00,,CLR,0.00,VWS V13.01,2013-12-26 06:27:00,
2013-12-25 23:32:00,30.2,1.0,30.05,SE,146,2.7,3.1,28,0.00,,CLR,0.00,VWS V13.01,2013-12-26 06:32:00,
2013-12-25 23:37:00,30.6,1.4,30.05,SSE,147,2.7,3.1,28,0.00,,CLR,0.00,VWS V13.01,2013-12-26 06:37:00,
2013-12-25 23:42:00,31.1,-0.6,30.05,SSE,163,2.7,4.0,25,0.00,,CLR,0.00,VWS V13.01,2013-12-26 06:42:00,
2013-12-25 23:47:00,31.1,-0.6,30.05,SSE,155,0.0,3.6,25,0.00,,CLR,0.00,VWS V13.01,2013-12-26 06:47:00,
2013-12-25 23:52:00,31.5,-2.0,30.05,SE,128,3.1,3.6,23,0.00,,CLR,0.00,VWS V13.01,2013-12-26 06:52:00,
2013-12-25 23:57:00,32.0,-1.6,30.05,SE,131,2.7,3.6,23,0.00,,CLR,0.00,VWS V13.01,2013-12-26 06:57:00,